Regional Weather Roundup
Issued by NWS

Home | Current Version | Previous Version | Graphics & Text | Print | Product List | Glossary On
Versions: 1 2 3 4 5 6 7 8 9 10 11 12 13 14 15 16 17 18 19 20 21 22 23 24 25 26 27 28 29 30 31 32 33 34 35 36 37 38 39 40 41 42 43 44 45 46 47 48 49 50
000
ASUS45 KBOU 121010
RWRCO

WEATHER ROUNDUP FOR COLORADO
NATIONAL WEATHER SERVICE DENVER/BOULDER CO
300 AM MST TUE DEC 12 2017

NOTE: "FAIR" INDICATES FEW OR NO CLOUDS BELOW 12000 FEET WITH NO
SIGNIFICANT WEATHER AND/OR OBSTRUCTIONS TO VISIBILITY.

COZ001>005-013-030-031-121100-
...NORTHWEST COLORADO...

CITY           SKY/WX    TMP DP  RH WIND       PRES   REMARKS
CRAIG          FAIR      10   5  80 W3        30.56S
HAYDEN         FAIR      24  13  62 E14       30.56S WCI  12
MEEKER         FAIR      18   9  68 CALM      30.55S
RABBIT EARS PA FAIR      27  10  50 W7        30.58R WCI  19
STEAMBOAT SPGS FAIR      15  10  78 CALM      30.56S
WALDEN         FAIR       9   3  78 CALM      30.56F
$$

COZ006>008-011-121100-
...WEST CENTRAL VALLEYS...

CITY           SKY/WX    TMP DP  RH WIND       PRES   REMARKS
GRAND JUNCTION FAIR      27   3  35 SE13      30.53S WCI  16
MONTROSE       FAIR      21   5  50 S10       30.57S WCI  10
EAGLE          FAIR      11   6  81 E3        30.65R
RIFLE          FAIR      21   6  52 S3        30.57R
DELTA          FAIR      22  -1  36 CALM      30.57S
NUCLA          FAIR      28   0  29 CALM      30.56R
$$

COZ017>023-064>068-121100-
...SOUTHWEST COLORADO...

CITY           SKY/WX    TMP DP  RH WIND       PRES   REMARKS
DURANGO        FAIR      16   1  51 N5        30.49R WCI   9
CORTEZ         FAIR      11  -1  58 NE3       30.51R
PAGOSA SPRINGS FAIR      26  -3  28 CALM      30.52S
TELLURIDE      FAIR      29   2  32 SE7       30.58S WCI  22
WOLF CREEK PAS FAIR      32  -9  16 SW9       30.67F WCI  24
$$

COZ009-010-012-014-032>034-037-058>063-121100-
...CENTRAL COLORADO...

CITY           SKY/WX    TMP DP  RH WIND       PRES   REMARKS
ASPEN          FAIR      21  11  65 S8        30.56S WCI  11
BUENA VISTA    FAIR      20   7  59 SW10      30.52S WCI   8
COPPER MTN     NOT AVBL
BERTHOUD PASS  FAIR      19   9  63 NW21G30   30.58F WCI   3
COTTONWOOD PAS FAIR      39   5  24 N5        30.54S
GUNNISON       FAIR      11   0  61 NE3       30.62R
KREMMLING      FAIR       5   1  85 CALM      30.64S
LEADVILLE      FAIR      21   5  50 NE8       30.56S WCI  11
MONARCH PASS   FAIR      27   1  33 W22       30.71F WCI  12
SALIDA         FAIR      25   6  45 W5        30.60S WCI  19
SUNLIGHT       FAIR      30  10  43 CALM      30.65S
WILKERSON PASS FAIR      30   3  31 N12G25    30.57S WCI  21
$$

COZ069>075-121100-
...SAN LUIS VALLEY/SANGRE DE CRISTO MOUNTAINS...

CITY           SKY/WX    TMP DP  RH WIND       PRES   REMARKS
ALAMOSA        FAIR       8  -4  58 W3        30.52R
DEL NORTE      FAIR      22  -3  32 W10       30.52S WCI  11
LA VETA PASS   FAIR      28  -4  24 SW23        N/A  WCI  14
SAGUACHE       FAIR      23   1  39 N5        30.53R WCI  17
$$

COZ035-036-038>040-121100-
...NORTHERN COLORADO FRONT RANGE...

CITY           SKY/WX    TMP DP  RH WIND       PRES   REMARKS
DENVER INTL AP FAIR      32  10  40 S12       30.40F WCI  23
DMNS CITY PARK NOT AVBL
AURORA         CLEAR     31  11  42 S12       30.40F WCI  22
FRONT RANGE AP FAIR      26  11  52 S8        30.41F WCI  18
ERIE MUNI ARPT FAIR      20  13  72 CALM      30.45F
BOULDER MUN AP FAIR      32  10  40 SW5       30.39F WCI  27
CENTENNIAL     FAIR      31  11  43 SE6       30.41F WCI  25
BROOMFIELD     FAIR      34   9  35 SW7       30.39F WCI  28
FORT COLLINS   FAIR      31  15  52 N5        30.40F WCI  26
LONGMONT       FAIR      29  12  49 W5        30.41F WCI  24
$$

COZ041-046-047-076>085-087-088-121100-
...PIKES PEAK/PALMER DIVIDE AND SOUTHERN FOOTHILLS...

CITY           SKY/WX    TMP DP  RH WIND       PRES   REMARKS
COLO. SPRINGS  FAIR      31   4  31 E6        30.46F WCI  25
A. F. ACADEMY  FAIR      19   4  51 N12       30.45F WCI   7
SCHRIEVER AFB  FAIR      28   3  34 W6        30.46F WCI  21
CHEYENNE MTN   FAIR      35   1  23 CALM      30.40F
ELLICOTT         N/A    N/A N/A N/A CALM      30.44F
FALCON         FAIR      31   2  29 W8        30.46F WCI  23
FORT CARSON    FAIR      25   3  39 N10       30.44F WCI  14
LIMON          FAIR      22   8  55 NW7       30.43F WCI  13
MONUMENT HILL  FAIR      30   5  34 SW10      30.45F WCI  21
CANON CITY     FAIR      34   5  29 W9        30.44F WCI  26
WALSENBURG     FAIR      23   5  46 CALM      30.45F
TRINIDAD       FAIR      27   7  42 SW13      30.47F WCI  16
$$

COZ042>045-048>051-090-091-121100-
...NORTHEAST COLORADO...

CITY           SKY/WX    TMP DP  RH WIND       PRES   REMARKS
GREELEY ARPT   FAIR      18  10  71 CALM      30.41F
AKRON          FAIR      29  10  45 W14       30.38F WCI  18
BURLINGTON     FAIR      19   9  65 W10       30.40F WCI   7
WRAY           FAIR      18  10  73 W6        30.40F WCI   9
YUMA           FAIR      23  10  58 W10       30.39S WCI  12
STERLING       FAIR      21  12  68 W5        30.38F WCI  15
HOLYOKE        FAIR      19  10  68 W5        30.38F WCI  13
FORT MORGAN    FAIR      20   6  53 W10       30.40F WCI   9
$$

COZ086-089-092>099-121100-
...SOUTHEAST COLORADO...

CITY           SKY/WX    TMP DP  RH WIND       PRES   REMARKS
PUEBLO         FAIR      17   3  54 CALM      30.45F
LA JUNTA       FAIR      26   6  42 W12       30.45F WCI  16
LAMAR          FAIR      17   5  59 SW8       30.43F WCI   7
SPRINGFIELD      N/A     21   8  57 SW8       30.43F WCI  11
$$



USA.gov is the U.S. government's official web portal to all federal, state and local government web resources and services.